Regional Weather Roundup
Issued by NWS

Home | Current Version | Previous Version | Text Only | Print | Product List | Glossary Off
Versions: 1 2 3 4 5 6 7 8 9 10 11 12 13 14 15 16 17 18 19 20 21 22 23 24 25 26 27 28 29 30 31 32 33 34 35 36 37 38 39 40 41 42 43 44 45 46 47 48 49 50

000
ASUS43 KMPX 252101
RWRMN
WEATHER ROUNDUP FOR MINNESOTA
NATIONAL WEATHER SERVICE TWIN CITIES/CHANHASSEN MN
300 PM CST SAT FEB 25 2017


NOTE: "FAIR" INDICATES FEW OR NO CLOUDS BELOW 12,000 FEET WITH NO
SIGNIFICANT WEATHER AND/OR OBSTRUCTIONS TO VISIBILITY. N/A MEANS
CURRENT SKY AND/OR WEATHER CONDITIONS ARE NOT AVAILABLE.

MNZ060>063-068>070-252200-
   Twin Cities Metro

CITY           SKY/WX    TMP DP  RH WIND       PRES   REMARKS
TWIN CITIES    PTSUNNY   32  13  45 W15G23    29.89F WCI  22
ST PAUL        PTSUNNY   33  13  43 W14G21    29.90F WCI  23
CRYSTAL        PTSUNNY   32  12  43 W15G22    29.88F WCI  22
BLAINE         PTSUNNY   36  16  44 W12G18    29.87F
LAKEVILLE      CLOUDY    30  18  59 W14       29.90F WCI  20
EDEN PRAIRIE   CLOUDY    32  15  49 W9G17     29.89F WCI  24
SOUTH ST PAUL  PTSUNNY   34  12  41 W13       29.90S WCI  25
LAKE ELMO      FAIR      32  14  47 W10       29.89F WCI  24
$$
MNZ001>005-007-008-013>017-022>024-027-028-252200-
   Northwest Minnesota

CITY           SKY/WX    TMP DP  RH WIND       PRES   REMARKS
BEMIDJI        CLOUDY    28  19  69 W16       29.74S WCI  17
HALLOCK        CLOUDY    25  19  80 NW13      29.77S WCI  13
ROSEAU         CLOUDY    25  18  74 W10G16    29.73F WCI  15
WARROAD        CLOUDY    21  18  86 W13       29.73S WCI   9
THIEF RVR FALL   N/A     26  20  77 MISG        N/A
CROOKSTON      PTSUNNY   28  21  74 NW12G18   29.78F WCI  18
FOSSTON        LGT SNOW  27  21  80 SW13      29.76S WCI  16
DETROIT LAKES  PTSUNNY   30  23  74 W9        29.78F WCI  22
MOORHEAD       CLOUDY    30  23  74 W12       29.81S WCI  21
PARK RAPIDS    CLOUDY    29  18  63 SW15      29.76F WCI  18
MAHNOMEN       CLOUDY    28  22  79 W14       29.76F WCI  17
$$
MNZ006-009>011-018-025>026-252200-
   North Central Minnesota

CITY           SKY/WX    TMP DP  RH WIND       PRES   REMARKS
BAUDETTE       CLOUDY    22  14  71 SW6       29.71F WCI  14
FLAG ISLAND    FLURRIES  18  14  86 S12       29.70F WCI   5
INTL FALLS     CLOUDY    21  11  65 SW8       29.72F WCI  11
WASKISH        LGT SNOW  25  19  80 W3        29.72F
BIG FORK       PTSUNNY   28  14  54 SW10      29.72F WCI  19
LONGVILLE      CLOUDY    28  18  64 SW8       29.76F WCI  20
GRAND RAPIDS   CLOUDY    27  14  58 VRB7      29.77F WCI  19
CRANE LAKE     CLOUDY    21   7  53 W7        29.75S WCI  13
ORR            FLURRIES  21   9  58 CALM      29.71F
COOK           FLURRIES  21  10  63 W10G17    29.74F WCI  10
WALKER         CLOUDY    28  17  65 SW12G17   29.75F WCI  18
$$
MNZ012-019>021-037-252200-
   Northeast Minnesota

CITY           SKY/WX    TMP DP  RH WIND       PRES   REMARKS
DULUTH         MOSUNNY   24  13  62 W15       29.76F WCI  11
ELY            CLOUDY    21   3  45 W10G18    29.71S WCI  10
HIBBING        CLOUDY    22  10  60 W9        29.76S WCI  12
EVELETH        MIX PCPN  22   5  46 W12       29.76S WCI  11
DULUTH HARBOR  MOSUNNY   28  16  59 W15       29.82F WCI  17
TWO HARBORS    PTSUNNY   27  12  54 W9G21     29.76R WCI  17
SILVER BAY     MOSUNNY   27   7  43 W5        29.73S WCI  21
GRAND MARAIS     N/A     30   4  33 VRB5      29.72S WCI  25
G MARAIS ARPRT SUNNY     21   0  39 NW12G23   29.64S WCI   9
$$
MNZ029>031-032-039>041-046>048-054>057-064-252200-
   West Central Minnesota

CITY           SKY/WX    TMP DP  RH WIND       PRES   REMARKS
FERGUS FALLS   LGT SNOW  30  25  80 W14       29.85F WCI  20
WHEATON        PTSUNNY   37  19  48 SW13      29.83F
MORRIS         CLOUDY    36  19  51 SW12G21   29.82F
ALEXANDRIA     CLOUDY    33  20  58 SW13      29.81F WCI  24
ELBOW LAKE     LGT SNOW  31  24  72 SW10      29.82F WCI  23
WADENA         MIX PCPN  28  21  74 SW12      29.79S WCI  18
GLENWOOD       CLOUDY    34  19  55 SW20      29.82F WCI  22
APPLETON       PTSUNNY   37  18  44 SW14G21   29.84F
BENSON         CLOUDY    37  12  35 W16       29.85F
ORTONVILLE     MOSUNNY   36  18  48 SW9G16    29.83F
MADISON        PTSUNNY   37  21  52 SW18G24   29.85F
WILLMAR        PTSUNNY   34  23  64 W15       29.87F WCI  24
$$
MNZ033>034-036-042>043-049>051-058-059-252200-
   Central Minnesota

CITY           SKY/WX    TMP DP  RH WIND       PRES   REMARKS
ST CLOUD       CLOUDY    31  17  56 W15       29.85F WCI  20
SAUK CENTRE    CLOUDY    31  19  61 W15       29.83F WCI  20
PAYNESVILLE    PTSUNNY   32  21  63 SW14      29.86F WCI  22
AITKIN         PTSUNNY   30  16  55 SW13      29.78F WCI  20
PINE RIVER     CLOUDY    28  18  64 W7G16     29.81F WCI  21
BRAINERD       CLOUDY    30  17  58 SW15      29.80F WCI  19
STAPLES        FLURRIES  28  18  64 SW9       29.80F WCI  20
LONG PRAIRIE   FLURRIES  30  21  69 S14       29.82F WCI  20
LITTLE FALLS   CLOUDY    32  16  51 W9G17     29.84S WCI  24
LITCHFIELD     PTSUNNY   34  19  55 SW9       29.88F WCI  26
BUFFALO        CLOUDY    32  18  57 SW10      29.89S WCI  23
MAPLE LAKE     CLOUDY    33  19  56 W9        29.88F WCI  25
HUTCHINSON     CLOUDY    33  22  64 W12       29.90S WCI  24
$$
MNZ037-044-045-052-053-252200-
   East Central Minnesota

CITY           SKY/WX    TMP DP  RH WIND       PRES   REMARKS
PRINCETON      CLOUDY    34  16  47 SW13      29.86F WCI  25
MORA           CLOUDY    32  18  55 W12       29.85F WCI  23
CAMBRIDGE      PTSUNNY   34  18  51 W9G17     29.84F WCI  26
RUSH CITY      PTSUNNY   30  14  51 W10G20    29.86S WCI  21
MOOSE LAKE     PTSUNNY   30  14  51 W10       29.79F WCI  21
HINCKLEY       FAIR      32  16  51 W12G17    29.83F WCI  23
CLOQUET        MOSUNNY   27  10  50 W15       29.78F WCI  15
MCGREGOR       PTSUNNY   30  18  59 SW10G17   29.79F WCI  21
$$
MNZ071>073-080-081-089-090-097-098-252200-
   Southwest Minnesota

CITY           SKY/WX    TMP DP  RH WIND       PRES   REMARKS
MONTEVIDEO     MOSUNNY   37  19  48 W14       29.88F
GRANITE FALLS  PTSUNNY   37  22  56 SW16G24   29.89F
CANBY          MOSUNNY   36  19  49 SW17      29.87F
MARSHALL       MOSUNNY   31  19  61 SW16      29.89F WCI  20
REDWOOD FALLS  CLOUDY    35  16  45 SW14      29.89F WCI  26
OLIVIA         PTSUNNY   34  21  60 SW13      29.87F WCI  25
PIPESTONE      CLOUDY    28  16  59 SW14G20   29.88F WCI  17
WINDOM         MOSUNNY   28  19  69 SW18G24   29.92F WCI  16
WORTHINGTON    CLOUDY    26  18  71 SW18      29.92F WCI  13
JACKSON        CLOUDY    27  19  74 SW15      29.94F WCI  15
TRACY          CLOUDY    31  19  62 SW16G25   29.90F WCI  20
SLAYTON        CLOUDY    27  19  70 SW18G25   29.90F WCI  14
$$
MNZ065>067-074>077-082>085-091>093-252200-
   South Central Minnesota

CITY           SKY/WX    TMP DP  RH WIND       PRES   REMARKS
MANKATO          N/A     29  19  66 SW15      29.93F WCI  18
NEW ULM        CLOUDY    30  19  64 SW13      29.91F WCI  20
ST JAMES       SUNNY     28  19  69 SW12      29.95F WCI  18
FAIRMONT       CLOUDY    28  18  66 SW13      29.96F WCI  17
GLENCOE        CLOUDY    32  22  67 SW9       29.90S WCI  25
FARIBAULT      CLOUDY    30  18  59 SW9       29.93S WCI  22
OWATONNA       SUNNY     27  16  63 SW17      29.93S WCI  14
WASECA         SUNNY     25  16  68 SW15      29.96S WCI  12
ALBERT LEA     SUNNY     25  16  68 SW9       29.95S WCI  15
$$
MNZ078>079-086>088-094>096-252200-
   Southeast Minnesota

CITY           SKY/WX    TMP DP  RH WIND       PRES   REMARKS
ROCHESTER      SUNNY     22  13  68 W13       29.93S WCI  10
RED WING       SUNNY     30   9  40 W12       29.91S WCI  21
STANTON        CLOUDY    31  16  52 W9        29.91S WCI  23
WINONA         SUNNY     30  12  47 NW9       29.95S WCI  22
AUSTIN         SUNNY     23  14  68 SW12      29.95S WCI  12
PRESTON        SUNNY     22  11  62 W12       29.94S WCI  11
$$
ABBREVIATIONS USED IN REMARKS
   TC - TEMPERATURES IN CELSIUS
  WCI - WIND CHILL INDEX
   HX - HEAT INDEX
  VSB - VISIBILITY
$$




USA.gov is the U.S. government's official web portal to all federal, state and local government web resources and services.